sat.trackr.live / text

‹ back to catalog

GLOBALSTAR M077

NORAD 37191 · 2010-054D

PAYLOAD ACTIVE UNKNOWN

§ Identity

Operator
Country
GLOB
Launch date
2010-10-19
Launch site
TYMSC
Launch vehicle
Mass (kg)
RCS (m²)
4.79

Purposes: comms

External: N2YO · Heavens-Above · Gunter

§ Orbital elements

Epoch: 2026-05-25T03:57:38.719008Z

Period
123.34 min
Inclination
51.9954°
Eccentricity
0.0003090
Mean motion
11.67547249 rev/d
Perigee alt
1,827.0 km
Apogee alt
1,832.0 km
Semi-major
8,207.7 km
B*
1.1121e-4
RAAN
237.7300°
Arg perigee
132.4311°
Mean anomaly
232.4770°
Rev number
71,845

§ Raw data

GLOBALSTAR M0771 37191U 10054D   26145.16503147 -.00000072  00000+0  11121-3 0  99942 37191  51.9954 237.7300 0003090 132.4311 232.4770 11.67547249718451

JSON: /api/v1/satellites/37191 · /tle

For live sub-satellite position, see the globe view (requires WebGL).

§ Visibility from observer

Set your observer location to see the next 7 days of passes ≥ 10°. The values pass through the URL so the page stays shareable.

No JS? Fill the form by hand. The geolocation button needs JavaScript.